Location: Gro�wechsungen
(51.4926°N, 10.6901°E)
Time: 07:12:35
(UTC+00:00)

Terra - Pass Details

Date: 18 September 2020
Orbit: 701 x 703 km, 98.2° (Epoch: 22 October)

Event Time Altitude Azimuth Distance (km) Brightness Sun altitude
Exits shadow 20:19:10 34° 41° (NE) 1,160 2.9 -25.8°
Drops below altitude 10° 20:22:40 10° 359° (N) 2,184 4.9 -26.2°
Sets 20:25:04 0° 351° (N) 3,106 5.9 -26.5°
